Regional Weather Roundup
Issued by NWS

Home | Current Version | Previous Version | Graphics & Text | Print | Product List | Glossary On
Versions: 1 2 3 4 5 6 7 8 9 10 11 12 13 14 15 16 17 18 19 20 21 22 23 24 25 26 27 28 29 30 31 32 33 34 35 36 37 38 39 40 41 42 43 44 45 46 47 48 49 50
287
ASUS43 KLOT 250509
RWRIL

ILLINOIS REGIONAL WEATHER ROUNDUP
NATIONAL WEATHER SERVICE CHICAGO/ROMEOVILLE IL
1200 AM CDT TUE JUL 25 2017

NOTE: "FAIR" INDICATES FEW OR NO CLOUDS BELOW 12,000 FEET WITH NO
SIGNIFICANT WEATHER AND/OR OBSTRUCTIONS TO VISIBILITY.

* THESE STATIONS ARE NOT UNDER NWS QUALITY CONTROL. THEY ALSO MAY NOT
  REPORT WEATHER SUCH AS PRECIPITATION OR FOG.

ILZ001-002-007-009-015-016-024-250600-
NORTHWEST ILLINOIS

CITY           SKY/WX    TMP DP  RH WIND       PRES   REMARKS
MOLINE         CLEAR     63  60  90 SE5       30.09R
STERLING*      CLEAR     61  60  97 E6        30.12R
SAVANNA*       CLEAR     62  59  91 E5        30.10F
$$

ILZ003-004-008-010-011-017-018-250600-
NORTH CENTRAL ILLINOIS

CITY           SKY/WX    TMP DP  RH WIND       PRES   REMARKS
ROCKFORD       CLEAR     64  59  83 E7        30.14R
FREEPORT*      CLEAR     59  57  94 E3        30.14S
ROCHELLE*      CLEAR     60  58  96 E3        30.14R
DE KALB*       CLEAR     60  58  94 E6        30.14R
PERU*          CLEAR    N/A N/A N/A E6        30.12R
$$

ILZ005-006-012>014-019>023-250600-
NORTHEAST ILLINOIS

CITY           SKY/WX    TMP DP  RH WIND       PRES   REMARKS
CHICAGO-OHARE  PTCLDY    67  59  75 NE6       30.12R
CHICAGO-MIDWAY PTCLDY    69  61  75 NE6       30.11S
AURORA         CLEAR     60  58  92 NE3       30.13R
LANSING*       CLEAR     65  60  82 E3        30.12S
JOLIET*        CLEAR     65  61  85 NE3       30.12R
WAUKEGAN       CLEAR     60  59  96 CALM      30.12R
DUPAGE AIRPORT CLEAR     61  60  97 N3        30.12R
WHEELING       CLEAR     64  63  96 CALM      30.14
MORRIS*        CLEAR     60  58  92 CALM      30.11R
ROMEOVILLE*    CLEAR     62  57  83 NE5       30.12R
NORTHERLY ISL    N/A     68  60  75 CALM        N/A
$$

LMZ740>746-250600-
SOUTHERN LAKE MICHIGAN

STATION/POSITION SKY/WX   TEMP    WIND        PRES    VSBY  WAVE
                          AIR SEA DIR/SP/G                  HT/PER
                          (F)     (DEG/KT/KT) (MB)    (MI)  (FT/S)
SOUTHERN BUOY              68 70   20/ 12/ 12 1019.6          3/ 6
WILMETTE HARBOR            69 72   50/  8/ 12   N/A           4/ 6
HARRISON CRIB              70      70/  8/  9   N/A
BURNHAM HARBOR             68                   N/A
CALUMET HARBOR             69      40/  7/  8 1019.3R
BURNS HARBOR               70      60/ 10/ 12 1020.3R
MICHIGAN CITY              66      60/  7/  8   N/A
MICHIGAN CITY 6N           69 74  100/  8/ 12   N/A           4/ 6
ST. JOSEPH                 67 72  110/  6/  8 1019.9          3/ 5
$$

ILZ025>027-034>036-040-047-049-050-058-095>099-250600-
WEST-CENTRAL ILLINOIS

CITY           SKY/WX    TMP DP  RH WIND       PRES   REMARKS
QUINCY         PTCLDY    70  65  84 E7        30.07R
GALESBURG*     CLEAR     65  62  87 E6        30.10S
MACOMB*        CLEAR     64  63  97 NE3       30.10R
JACKSONVILLE*  CLEAR     68  65  90 E6        30.08R
PITTSFIELD*    CLEAR     69  67  91 CALM      30.08R
$$

ILZ028>032-037-038-041>044-048-051>054-059>061-250600-
CENTRAL ILLINOIS

CITY           SKY/WX    TMP DP  RH WIND       PRES   REMARKS
PONTIAC        CLEAR     61  61  99 E6        30.12R
BLOOMINGTON    CLEAR     62  59  90 E7        30.12R
DECATUR        CLEAR     65  63  93 NE7       30.09R
PEORIA         CLEAR     68  63  84 E7        30.09R
LACON*         CLEAR     63  61  92 E6        30.10R
LINCOLN*       CLEAR     66  64  90 E5        30.09R
SPRINGFIELD    CLEAR     71  64  78 E8        30.08R
TAYLORVILLE    MOCLDY    69  64  84 E8        30.08R
$$

ILZ033-039-045-046-055>057-062-063-250600-
EAST-CENTRAL ILLINOIS

CITY           SKY/WX    TMP DP  RH WIND       PRES   REMARKS
CHAMPAIGN      CLEAR     65  61  87 NE7       30.10R
RANTOUL*       CLEAR     66  62  87 NE6       30.11R
MATTOON        CLEAR     67  65  93 NE5       30.08R
PARIS*         CLEAR     66  64  93 N5        30.09S
$$

ILZ079-100>102-250600-
SOUTHWEST ILLINOIS

CITY           SKY/WX    TMP DP  RH WIND       PRES   REMARKS
ALTON          CLEAR     72  68  89 NE6       30.05R
BELLEVILLE     CLEAR     73  69  86 NE5       30.05R
CAHOKIA*       CLEAR     76  68  76 E6        30.04R
SPARTA*        PTCLDY    74  68  81 E6        30.04R
$$

ILZ064>066-069>071-074>076-080>082-084>086-088>090-092>094-250600-
SOUTH-CENTRAL ILLINOIS

CITY           SKY/WX    TMP DP  RH WIND       PRES   REMARKS
CARBONDALE     CLEAR     75  72  90 NE3       30.02R
CAIRO*         CLOUDY    78  75  90 W3        30.01R HX  81
EFFINGHAM*     CLEAR     70  67  92 CALM      30.08R
MARION         PTCLDY    79  72  78 E3        30.03S HX  82
MT. VERNON     CLEAR     73  68  84 NE6       30.05R
CENTRALIA*     CLEAR     73  70  89 E3        30.04R
SALEM*         CLEAR     74  68  81 NE3       30.06R
METROPOLIS*    PTCLDY    76  73  93 CALM      30.01S
$$

ILZ067-068-072-073-078-083-087-091-250600-
SOUTHEAST ILLINOIS

CITY           SKY/WX    TMP DP  RH WIND       PRES   REMARKS
LAWRENCEVILLE  CLEAR     71  68  90 NE6       30.06R
FLORA*         CLEAR     73  68  84 NE3       30.06R
FAIRFIELD*     CLEAR     71  69  95 N3        30.04R
HARRISBURG*    PTCLDY    76  69  79 NE3       30.02S
ROBINSON*      CLEAR     68  66  93 NE5       30.07S
CARMI*         PTCLDY    71  69  95 N5        30.03R
$$

ABBREVIATIONS USED IN REMARKS
   TC - TEMPERATURE IN CELSIUS
  WCI - WIND CHILL INDEX
   HX - HEAT INDEX
  VSB - VISIBILITY
$$





USA.gov is the U.S. government's official web portal to all federal, state and local government web resources and services.